Shingle Point, Yukon Territory

11:14 PM PST on December 07, 2016 (GMT -0800)
Shingle Point

Weather History for CYUA - March, 2013

Change the Weather History Date:

Monday, March 11, 2013

  Actual Average Record
Temperature  
Mean Temperature -2 °F -  
Max Temperature 1 °F 1 °F 8 °F (2016)
Min Temperature -4 °F -15 °F -38 °F (2007)
Degree Days  
Heating Degree Days 66    
Moisture  
Dew Point -    
Average Humidity    
Maximum Humidity    
Minimum Humidity    
Precipitation  
Precipitation 0.00 in 0.01 in - ()
Sea Level Pressure  
Sea Level Pressure 30.60 in    
Wind  
Wind Speed 20 mph ()    
Max Wind Speed 28 mph    
Max Gust Speed 29 mph    
Visibility 1.9 miles    
Events Snow    
Averages and records for this station are not official NWS values.
T = Trace of Precipitation, MM = Missing Value Source: Averaged Metar Reports

Daily Weather History Graph

Daily Weather History Graph

Search for Another Location

Airport or City:

Trip Planner

Search our weather history database for the weather conditions in past years. The results will help you decide how hot, cold, wet, or windy it might be!

Date:

Astronomy

Mar. 11, 2013 Rise Set
Actual Time 8:45 AM PDT 7:53 PM PDT
Civil Twilight 7:48 AM PDT 8:51 PM PDT
Nautical Twilight 6:39 AM PDT 10:00 PM PDT
Astronomical Twilight 5:20 AM PDT 11:21 PM PDT
Moon 8:07 AM PDT (3/11) 8:47 PM PDT (3/11)
Length of Visible Light 13h 03m
Length of Day
11h 07m
Waning Crescent, 0% of the Moon is Illuminated
Mar 11
Waning Crescent
Mar 11
New
Mar 19
First Quarter
Mar 27
Full
Apr 2
Last Quarter

Hourly Weather History & Observations

Time (PDT) Temp. Windchill Dew Point Humidity Pressure Visibility Wind Dir Wind Speed Gust Speed Precip Events Conditions
12:00 AM 1.4 °F -17.6 °F - N/A% 30.41 in 9.0 mi West 15.0 mph - N/A   Unknown
12:18 AM 1.4 °F -17.6 °F - N/A% 30.39 in 8.0 mi West 15.0 mph - N/A Snow Light Snow
12:54 AM 1.4 °F -16.9 °F - N/A% 30.40 in 9.0 mi West 13.8 mph - N/A   Unknown
1:00 AM -0.4 °F -19.2 °F - N/A% 30.43 in 9.0 mi West 13.8 mph - N/A   Unknown
1:27 AM -0.4 °F -22.3 °F - N/A% 30.41 in 7.0 mi West 19.6 mph - N/A Snow Light Snow
1:42 AM -0.4 °F -21.7 °F - N/A% 30.42 in 8.0 mi West 18.4 mph - N/A   Unknown
2:00 AM -0 °F - - % 30.45 in 5 mi WNW 19.6 mph - -  
2:00 AM -0.4 °F -22.8 °F - N/A% 30.45 in 5.0 mi WNW 20.7 mph - N/A   Unknown
2:11 AM -0.4 °F -23.3 °F - N/A% 30.43 in 2.8 mi WNW 21.9 mph - N/A   Unknown
2:26 AM -0.4 °F -22.8 °F - N/A% 30.44 in 2.6 mi WNW 20.7 mph - N/A Snow Light Snow
2:37 AM -2.2 °F -24.7 °F - N/A% 30.45 in 3.5 mi West 19.6 mph - N/A Snow Light Snow
2:48 AM -2.2 °F -24.1 °F - N/A% 30.44 in 6.0 mi West 18.4 mph - N/A   Unknown
3:00 AM -4.0 °F -25.2 °F - N/A% 30.47 in 9.0 mi West 16.1 mph - N/A   Unknown
4:00 AM -0.4 °F -21.7 °F - N/A% 30.49 in 7.0 mi WNW 18.4 mph - N/A   Unknown
4:06 AM -0.4 °F -22.8 °F - N/A% 30.47 in 3.0 mi WNW 20.7 mph - N/A   Unknown
4:10 AM -0.4 °F -23.3 °F - N/A% 30.47 in 1.4 mi WNW 21.9 mph - N/A   Unknown
4:13 AM -0.4 °F -24.3 °F - N/A% 30.47 in 1.0 mi WNW 24.2 mph - N/A   Unknown
4:14 AM -0.4 °F -24.3 °F - N/A% 30.47 in 0.8 mi WNW 24.2 mph - N/A Snow Light Snow
4:15 AM 1.4 °F -21.9 °F - N/A% 30.47 in 0.6 mi WNW 24.2 mph - N/A Snow Light Snow
4:33 AM 1.4 °F -21.0 °F - N/A% 30.48 in 1.0 mi WNW 21.9 mph - N/A Snow Light Snow
4:45 AM 1.4 °F -20.5 °F - N/A% 30.49 in 1.4 mi WNW 20.7 mph - N/A   Unknown
4:47 AM 1.4 °F -20.5 °F - N/A% 30.49 in 2.1 mi WNW 20.7 mph - N/A   Unknown
5:00 AM 1 °F - - % 30.51 in 2 mi WNW 21.9 mph - -  
5:00 AM 1.4 °F -21.0 °F - N/A% 30.51 in 1.8 mi WNW 21.9 mph - N/A   Unknown
5:27 AM -0.4 °F -22.8 °F - N/A% 30.50 in 3.0 mi WNW 20.7 mph - N/A   Unknown
5:29 AM -0.4 °F -22.8 °F - N/A% 30.50 in 3.0 mi WNW 20.7 mph - N/A   Unknown
5:41 AM -0.4 °F -23.8 °F - N/A% 30.50 in 1.4 mi WNW 23.0 mph - N/A   Unknown
5:57 AM -0.4 °F -22.8 °F - N/A% 30.50 in 1.0 mi WNW 20.7 mph - N/A   Unknown
6:00 AM -0.4 °F -22.8 °F - N/A% 30.53 in 1.0 mi WNW 20.7 mph - N/A   Unknown
6:12 AM -0.4 °F -23.8 °F - N/A% 30.50 in 1.0 mi WNW 23.0 mph - N/A Snow Light Snow
6:15 AM -0.4 °F -24.3 °F - N/A% 30.51 in 0.6 mi WNW 24.2 mph - N/A Snow Light Snow
6:47 AM -0.4 °F -24.3 °F - N/A% 30.52 in 1.0 mi WNW 24.2 mph - N/A Snow Light Snow
6:48 AM -0.4 °F -24.3 °F - N/A% 30.52 in 1.0 mi WNW 24.2 mph - N/A   Unknown
6:51 AM -0.4 °F -23.8 °F - N/A% 30.52 in 1.0 mi WNW 23.0 mph - N/A Snow Light Snow
7:00 AM -0.4 °F -23.8 °F - N/A% 30.55 in 1.0 mi WNW 23.0 mph - N/A Snow Light Snow
7:04 AM -0.4 °F -23.8 °F - N/A% 30.53 in 0.6 mi WNW 23.0 mph - N/A Snow Light Snow
7:16 AM -0.4 °F -24.3 °F - N/A% 30.54 in 0.4 mi WNW 24.2 mph - N/A Snow Light Snow
7:39 AM -0.4 °F -24.7 °F - N/A% 30.55 in 0.6 mi NW 25.3 mph - N/A Snow Light Snow
7:49 AM -0.4 °F -24.7 °F - N/A% 30.56 in 0.4 mi WNW 25.3 mph - N/A Snow Light Snow
8:00 AM -1 °F - - % 30.58 in 0 mi WNW 25.3 mph - - Snow Light Snow
8:00 AM -0.4 °F -23.8 °F - N/A% 30.58 in 0.2 mi WNW 23.0 mph 28.8 mph N/A Snow Light Snow
9:00 AM -2.2 °F -27.6 °F - N/A% 30.59 in 0.2 mi WNW 26.5 mph - N/A Snow Light Snow
9:25 AM -2.2 °F -27.1 °F - N/A% 30.58 in 0.5 mi WNW 25.3 mph - N/A Snow Light Snow
10:00 AM -2.2 °F -25.2 °F - N/A% 30.62 in 0.6 mi WNW 20.7 mph - N/A Snow Light Snow
10:07 AM -2.2 °F -25.2 °F - N/A% 30.59 in 0.6 mi WNW 20.7 mph - N/A   Unknown
10:09 AM -2.2 °F -25.7 °F - N/A% 30.59 in 0.6 mi WNW 21.9 mph - N/A Snow Light Snow
10:11 AM -2.2 °F -25.7 °F - N/A% 30.59 in 0.8 mi WNW 21.9 mph - N/A Snow Light Snow
10:12 AM -2.2 °F -25.7 °F - N/A% 30.59 in 0.6 mi WNW 21.9 mph - N/A Snow Light Snow
10:45 AM -2.2 °F -27.6 °F - N/A% 30.59 in 0.4 mi WNW 26.5 mph - N/A Snow Light Snow
11:00 AM -3 °F - - % 30.63 in 0 mi WNW 26.5 mph - -  
11:00 AM -2.2 °F -27.6 °F - N/A% 30.63 in 0.2 mi WNW 26.5 mph - N/A Snow Light Snow
12:00 PM -2.2 °F -27.6 °F - N/A% 30.65 in 0.2 mi WNW 26.5 mph - N/A Snow Light Snow
1:00 PM -2.2 °F -27.6 °F - N/A% 30.67 in 0.2 mi WNW 26.5 mph - N/A Snow Light Snow
2:00 PM -1 °F - - % 30.69 in 0 mi WNW 26.5 mph - - Snow Light Snow
2:00 PM -0.4 °F -25.6 °F - N/A% 30.69 in 0.2 mi WNW 27.6 mph - N/A Snow Light Snow
3:00 PM -0.4 °F -23.3 °F - N/A% 30.70 in 0.2 mi NW 21.9 mph - N/A Snow Light Snow
3:26 PM -2.2 °F -27.1 °F - N/A% 30.68 in 0.5 mi NW 25.3 mph - N/A Snow Light Snow
3:59 PM -2.2 °F -25.7 °F - N/A% 30.68 in 0.8 mi WNW 21.9 mph - N/A Snow Light Snow
4:00 PM -2.2 °F -25.2 °F - N/A% 30.71 in 1.0 mi WNW 20.7 mph 26.5 mph N/A Snow Light Snow
4:08 PM -2.2 °F -26.2 °F - N/A% 30.69 in 1.5 mi WNW 23.0 mph - N/A Snow Light Snow
4:10 PM -2.2 °F -26.2 °F - N/A% 30.69 in 1.6 mi NW 23.0 mph - N/A   Unknown
4:39 PM -2.2 °F -26.7 °F - N/A% 30.69 in 1.4 mi WNW 24.2 mph - N/A   Unknown
4:44 PM -2.2 °F -25.2 °F - N/A% 30.69 in 1.1 mi WNW 20.7 mph - N/A Snow Light Snow
5:00 PM -2 °F - - % 30.72 in 1 mi WNW 23.0 mph - -  
5:00 PM -2.2 °F -26.7 °F - N/A% 30.72 in 1.1 mi WNW 24.2 mph - N/A Snow Light Snow
5:34 PM -2.2 °F -25.2 °F - N/A% 30.71 in 2.1 mi NW 20.7 mph - N/A Snow Light Snow
5:43 PM -2.2 °F -25.7 °F - N/A% 30.71 in 2.5 mi NW 21.9 mph - N/A   Unknown
6:00 PM -2.2 °F -24.7 °F - N/A% 30.74 in 2.2 mi WNW 19.6 mph - N/A   Unknown
6:47 PM -2.2 °F -25.2 °F - N/A% 30.70 in 1.4 mi WNW 20.7 mph - N/A   Unknown
7:00 PM -2.2 °F -24.7 °F - N/A% 30.73 in 1.1 mi WNW 19.6 mph - N/A   Unknown
7:05 PM -2.2 °F -25.7 °F - N/A% 30.71 in 1.0 mi WNW 21.9 mph - N/A Snow Light Snow
7:31 PM -4.0 °F -28.1 °F - N/A% 30.71 in 1.0 mi WNW 21.9 mph - N/A   Unknown
7:36 PM -4.0 °F -28.1 °F - N/A% 30.71 in 1.0 mi WNW 21.9 mph - N/A   Unknown
7:57 PM -4.0 °F -25.8 °F - N/A% 30.72 in 2.0 mi WNW 17.3 mph - N/A   Unknown
8:00 PM -4 °F - - % 30.74 in 2 mi WNW 18.4 mph - -  
8:00 PM -4.0 °F -25.8 °F - N/A% 30.74 in 2.0 mi WNW 17.3 mph - N/A   Unknown
8:21 PM -4.0 °F -27.0 °F - N/A% 30.72 in 4.0 mi WNW 19.6 mph - N/A   Unknown
8:35 PM -4.0 °F -28.1 °F - N/A% 30.71 in 3.0 mi WNW 21.9 mph - N/A   Unknown
8:56 PM -4.0 °F -28.1 °F - N/A% 30.72 in 1.4 mi WNW 21.9 mph - N/A   Unknown
9:00 PM -4.0 °F -28.1 °F - N/A% 30.74 in 1.1 mi WNW 21.9 mph - N/A   Unknown
9:22 PM -4.0 °F -28.6 °F - N/A% 30.71 in 2.1 mi WNW 23.0 mph - N/A   Unknown
9:33 PM -4.0 °F -29.1 °F - N/A% 30.71 in 1.4 mi WNW 24.2 mph - N/A   Unknown
9:45 PM -4.0 °F -30.0 °F - N/A% 30.71 in 1.0 mi WNW 26.5 mph - N/A   Unknown
9:48 PM -4.0 °F -30.0 °F - N/A% 30.71 in 0.6 mi WNW 26.5 mph - N/A   Unknown
9:59 PM -4.0 °F -29.6 °F - N/A% 30.71 in 0.8 mi WNW 25.3 mph - N/A   Unknown
10:00 PM -4.0 °F -29.6 °F - N/A% 30.74 in 0.8 mi WNW 25.3 mph - N/A   Unknown
10:14 PM -4.0 °F -29.6 °F - N/A% 30.71 in 1.0 mi WNW 25.3 mph - N/A   Unknown
10:17 PM -4.0 °F -29.6 °F - N/A% 30.71 in 1.0 mi WNW 25.3 mph - N/A   Unknown
10:41 PM -4.0 °F -30.0 °F - N/A% 30.70 in 0.6 mi WNW 26.5 mph - N/A   Unknown
10:58 PM -4.0 °F -30.0 °F - N/A% 30.70 in 0.6 mi WNW 26.5 mph - N/A Snow Light Snow
11:00 PM -3 °F - - % 30.72 in 0 mi WNW 26.5 mph - -  
11:00 PM -4.0 °F -30.0 °F - N/A% 30.72 in 0.5 mi WNW 26.5 mph - N/A Snow Light Snow
11:40 PM -4.0 °F -30.0 °F - N/A% 30.69 in 0.8 mi WNW 26.5 mph - N/A Snow Light Snow
11:42 PM -4.0 °F -30.0 °F - N/A% 30.69 in 0.6 mi WNW 26.5 mph - N/A Snow Light Snow
11:59 PM -4.0 °F -29.6 °F - N/A% 30.68 in 0.8 mi WNW 25.3 mph - N/A Snow Light Snow